N7WWK-1 Weather Reports


Display with metric or nautical units.
time (UTC)temp
F
wind
direction
speed
MPH
gust
MPH
rain 1hr
in
rain 24hr
in
rain mn
in
humidity
%
barometer
mb
20260506222004 92 119 1.0 2.0 0.00 0.00 0.00 47 1012.2
20260506221218 92 103 1.0 4.0 0.00 0.00 0.00 46 1012.1
20260506220005 94 126 1.0 3.0 0.00 0.00 0.00 45 1012.5
20260506215006 93 184 1.0 6.0 0.00 0.00 0.00 45 1012.4
20260506214004 94 141 1.0 3.0 0.00 0.00 0.00 44 1012.5
20260506213005 94 181 1.0 3.0 0.00 0.00 0.00 44 1012.6
20260506212218 94 182 1.0 6.0 0.00 0.00 0.00 42 1012.3
20260506211004 94 155 1.0 4.0 0.00 0.00 0.00 44 1012.6
20260506210005 94 175 2.0 6.0 0.00 0.00 0.00 43 1012.8
20260506205005 94 279 1.0 6.0 0.00 0.00 0.00 43 1012.7
20260506204004 94 177 1.0 2.0 0.00 0.00 0.00 46 1012.6
20260506203217 93 218 1.0 3.0 0.00 0.00 0.00 44 1012.7
20260506202004 93 169 2.0 6.0 0.00 0.00 0.00 47 1013.0
20260506201004 94 142 1.0 4.0 0.00 0.00 0.00 43 1013.1
20260506200005 94 122 1.0 3.0 0.00 0.00 0.00 44 1013.1
20260506195004 94 246 2.0 6.0 0.00 0.00 0.00 44 1013.0
20260506194217 93 213 1.0 3.0 0.00 0.00 0.00 46 1013.2
20260506193004 93 125 1.0 4.0 0.00 0.00 0.00 44 1013.4
20260506192004 94 148 1.0 3.0 0.00 0.00 0.00 45 1013.4
20260506191005 92 120 2.0 7.0 0.00 0.00 0.00 46 1013.9
20260506190006 94 240 1.0 3.0 0.00 0.00 0.00 45 1013.7
20260506185004 94 192 2.0 7.0 0.00 0.00 0.00 44 1013.9
20260506184005 92 197 1.0 4.0 0.00 0.00 0.00 46 1014.0
20260506183005 92 151 1.0 3.0 0.00 0.00 0.00 46 1014.1
20260506182004 91 197 2.0 3.0 0.00 0.00 0.00 46 1014.5
20260506181005 91 247 2.0 7.0 0.00 0.00 0.00 48 1014.5
20260506180006 91 154 2.0 4.0 0.00 0.00 0.00 48 1014.5
20260506175004 91 202 2.0 7.0 0.00 0.00 0.00 48 1014.5
20260506174004 90 166 1.0 3.0 0.00 0.00 0.00 49 1014.8
20260506173005 88 135 1.0 4.0 0.00 0.00 0.00 52 1015.0
20260506172004 89 148 1.0 3.0 0.00 0.00 0.00 53 1014.8
20260506171005 89 157 1.0 6.0 0.00 0.00 0.00 51 1014.8
20260506170005 89 225 2.0 7.0 0.00 0.00 0.00 52 1014.9
20260506165005 87 163 1.0 4.0 0.00 0.00 0.00 55 1015.2
20260506164005 89 190 1.0 6.0 0.00 0.00 0.00 54 1015.4
20260506163004 88 225 2.0 8.0 0.00 0.00 0.00 55 1015.3
20260506162004 88 212 1.0 3.0 0.00 0.00 0.00 53 1015.4
20260506161005 87 224 2.0 6.0 0.00 0.00 0.00 57 1015.5
20260506160005 85 143 1.0 3.0 0.00 0.00 0.00 57 1015.5
20260506155004 85 212 3.0 9.0 0.00 0.00 0.00 60 1015.7
20260506154004 86 152 1.0 6.0 0.00 0.00 0.00 59 1015.7
20260506153215 85 195 1.0 3.0 0.00 0.00 0.00 60 1015.6
20260506152005 84 197 2.0 4.0 0.00 0.00 0.00 61 1015.7
20260506151004 84 148 2.0 4.0 0.00 0.00 0.00 61 1015.6
20260506150005 83 159 2.0 6.0 0.00 0.00 0.00 63 1015.8
20260506145005 83 208 2.0 4.0 0.00 0.00 0.00 62 1015.6
20260506144215 83 197 1.0 4.0 0.00 0.00 0.00 65 1015.4
20260506143005 82 160 2.0 4.0 0.00 0.00 0.00 67 1015.5
20260506142004 81 211 2.0 6.0 0.00 0.00 0.00 69 1015.4
20260506141004 81 164 1.0 3.0 0.00 0.00 0.00 70 1015.6
20260506140005 80 196 2.0 7.0 0.00 0.00 0.00 71 1015.5
20260506135004 80 207 1.0 4.0 0.00 0.00 0.00 72 1015.3
20260506134004 79 133 1.0 3.0 0.00 0.00 0.00 74 1015.4
20260506133005 78 160 1.0 4.0 0.00 0.00 0.00 76 1015.1
20260506132005 76 191 2.0 6.0 0.00 0.00 0.00 78 1015.3
20260506131004 76 179 1.0 3.0 0.00 0.00 0.00 78 1015.1
20260506130005 75 145 1.0 3.0 0.00 0.00 0.00 79 1015.0
20260506125004 75 125 1.0 3.0 0.00 0.00 0.00 79 1014.8
20260506124216 74 152 1.0 6.0 0.00 0.00 0.00 80 1014.6
20260506123005 73 123 0.0 3.0 0.00 0.00 0.00 82 1014.9
20260506122218 71 134 0.0 2.0 0.00 0.00 0.00 84 1015.0
20260506121005 70 136 0.0 1.0 0.00 0.00 0.00 85 1015.0
20260506120005 69 157 0.0 2.0 0.00 0.00 0.00 87 1014.9
20260506115004 68 0 0.0 0.0 0.00 0.00 0.00 88 1014.7
20260506114005 66 0 0.0 0.0 0.00 0.00 0.00 90 1014.9
20260506113004 65 0 0.0 0.0 0.00 0.00 0.00 92 1014.7
20260506112004 63 0 0.0 0.0 0.00 0.00 0.00 94 1014.7
20260506111004 63 0 0.0 0.0 0.00 0.00 0.00 95 1014.4
20260506110005 62 0 0.0 0.0 0.00 0.00 0.00 94 1014.2
20260506105004 62 0 0.0 0.0 0.00 0.00 0.00 94 1014.1
20260506104218 63 0 0.0 0.0 0.00 0.00 0.00 94 1014.1
20260506103004 63 0 0.0 0.0 0.00 0.00 0.00 94 1013.9
20260506102005 63 0 0.0 0.0 0.00 0.00 0.00 94 1013.9
20260506101004 63 0 0.0 0.0 0.00 0.00 0.00 94 1014.0
20260506100005 63 0 0.0 0.0 0.00 0.00 0.00 94 1014.0
20260506095217 63 0 0.0 0.0 0.00 0.00 0.00 93 1014.0
20260506094004 63 0 0.0 0.0 0.00 0.00 0.00 93 1013.8
20260506093004 63 0 0.0 0.0 0.00 0.00 0.00 93 1013.7
20260506092005 63 0 0.0 0.0 0.00 0.00 0.00 93 1013.8
20260506091005 63 0 0.0 0.0 0.00 0.00 0.00 93 1013.8
20260506090004 63 0 0.0 0.0 0.00 0.00 0.00 93 1013.7
20260506085004 63 0 0.0 0.0 0.00 0.00 0.00 92 1013.7
20260506084004 63 0 0.0 0.0 0.00 0.00 0.00 92 1013.8
20260506083005 63 0 0.0 0.0 0.00 0.00 0.00 92 1013.7
20260506082216 63 0 0.0 0.0 0.00 0.00 0.00 91 1013.7
20260506081005 63 0 0.0 0.0 0.00 0.00 0.00 92 1013.6
20260506073005 63 0 0.0 0.0 0.00 0.00 0.00 90 1013.7
20260506072005 63 0 0.0 0.0 0.00 0.00 0.00 89 1013.8
20260506071005 63 0 0.0 0.0 0.00 0.00 0.00 88 1013.9
20260506062004 64 0 0.0 0.0 0.00 0.00 0.00 86 1014.3
20260506061218 64 0 0.0 0.0 0.00 0.00 0.00 85 1014.2
20260506051004 66 149 0.0 2.0 0.00 0.00 0.00 80 1014.8
20260506050214 65 0 0.0 0.0 0.00 0.00 0.00 82 1014.9
20260506045005 65 160 0.0 2.0 0.00 0.00 0.00 83 1015.1
20260506044004 65 0 0.0 0.0 0.00 0.00 0.00 83 1015.2
20260506043004 65 0 0.0 0.0 0.00 0.00 0.00 82 1015.3
20260506042004 65 0 0.0 0.0 0.00 0.00 0.00 81 1015.3
20260506041004 65 0 0.0 0.0 0.00 0.00 0.00 80 1015.4
20260506040020 66 136 0.0 1.0 0.00 0.00 0.00 80 1015.3
20260506035005 66 0 0.0 0.0 0.00 0.00 0.00 79 1014.9
20260506034005 67 0 0.0 0.0 0.00 0.00 0.00 78 1015.0
20260506033218 67 0 0.0 0.0 0.00 0.00 0.00 77 1014.7
20260506032004 67 0 0.0 0.0 0.00 0.00 0.00 76 1014.8
20260506031005 67 0 0.0 0.0 0.00 0.00 0.00 75 1014.7
20260506030216 68 139 0.0 0.0 0.00 0.00 0.00 74 1014.7
20260506025004 68 0 0.0 0.0 0.00 0.00 0.00 73 1014.4
20260506024217 68 0 0.0 0.0 0.00 0.00 0.00 73 1014.6
20260506023004 69 113 0.0 1.0 0.00 0.00 0.00 72 1014.4
20260506022214 69 128 0.0 1.0 0.00 0.00 0.00 71 1014.5
20260506021004 69 131 0.0 2.0 0.00 0.00 0.00 70 1014.5
20260506020005 70 94 0.0 1.0 0.00 0.00 0.00 70 1014.5
20260506015217 70 98 0.0 1.0 0.00 0.00 0.00 70 1014.4
20260506014004 71 99 0.0 1.0 0.00 0.00 0.00 69 1014.1
20260506013005 71 112 0.0 1.0 0.00 0.00 0.00 69 1014.2
20260506012215 71 100 0.0 1.0 0.00 0.00 0.00 68 1014.1
20260506011216 71 95 0.0 1.0 0.00 0.00 0.00 67 1014.2
20260506010005 72 90 0.0 1.0 0.00 0.00 0.00 66 1014.0
20260506005218 72 103 0.0 2.0 0.00 0.00 0.00 65 1013.9
20260506004005 73 95 1.0 3.0 0.00 0.00 0.00 64 1014.1
20260506003005 73 96 1.0 4.0 0.00 0.00 0.00 64 1013.8
20260506002005 74 96 1.0 3.0 0.00 0.00 0.00 62 1013.4
20260506001004 74 89 1.0 6.0 0.00 0.00 0.00 61 1013.2
20260506000219 74 83 1.0 6.0 0.00 0.00 0.00 60 1013.2
20260505235005 75 93 1.0 2.0 0.00 0.00 0.00 58 1013.2
20260505234004 75 93 1.0 6.0 0.00 0.00 0.00 57 1013.2
20260505233005 76 85 1.0 4.0 0.00 0.00 0.00 55 1013.3
20260505232004 76 84 2.0 6.0 0.00 0.00 0.00 53 1013.3
20260505231004 78 83 1.0 2.0 0.00 0.00 0.00 52 1013.0
20260505230005 78 91 2.0 9.0 0.00 0.00 0.00 52 1013.4
20260505225004 78 92 2.0 7.0 0.00 0.00 0.00 51 1013.1
20260505224004 79 85 2.0 7.0 0.00 0.00 0.00 53 1013.2
20260505223216 79 80 3.0 10.0 0.00 0.00 0.00 54 1013.1